{"data":{"norad_id":68492,"intl_designator":"2026-067CE","name":"LEMUR-2-EMARCHIA","alt_names":[],"object_type":"PAYLOAD","status":"ACTIVE","operator":null,"country":"GER","launch_date":"2026-03-30","launch_site_code":"AFWTR","launch_vehicle":null,"mission":null,"orbit_class":"UNKNOWN","rcs_meters":null,"size_class":null,"mass_kg":null,"dimensions":null,"purposes":[],"wikipedia_slug":null,"has_3d_model":false,"image_url":null,"decayed_at":null,"tle_current":{"epoch":"2026-09-18T14:54:30.809952Z","epoch_age_seconds":232101,"freshness":"STALE","line1":"1 68492U 26067CE  26261.62118993  .00003945  00000+0  38979-3 0  9995","line2":"2 68492  97.7653 218.3944 0005137  97.3146 262.8657 14.92488049 25658","mean_motion":14.92488049,"eccentricity":0.0005137,"inclination_deg":97.7653,"raan_deg":218.3944,"arg_perigee_deg":97.3146,"mean_anomaly_deg":262.8657,"bstar":0.00038979,"rev_number":2565,"period_min":96.483184636877,"perigee_km":586.60092020759,"apogee_km":593.76016965325,"semimajor_km":6968.3175449304,"source":"CELESTRAK","updated_at":"2026-09-20T09:00:24.255116Z"}}}